QPF
0.00 0.00 0.00 0.00 0.00 0.00 0.00 0.00 0.00 0.00 0.00 0.00 0.00 0.00 0.00 0.00 0.00 0.00 0.00 0.00 0.00 0.00 0.00 0.00 0.00 0.00 0.00 0.00 0.00 0.00 0.00 0.00 0.00 0.00 0.00 0.00 0.00 0.00 0.00 0.00 0.00 0.00 0.00 0.00 0.00 0.00 0.00 0.00 0.00
0.00 0.00 0.00 0.00 0.00 0.00 0.00 0.00 0.00 0.00 0.00 0.00 0.00 0.00 0.00 0.00 0.00 0.00 0.00 0.00 0.00 0.00 0.00 0.00 0.00 0.00 0.00 0.00 0.00 0.00 0.00 0.00 0.00 0.00 0.00 0.00 0.00 0.00 0.00 0.00 0.00 0.00 0.00 0.00 0.00 0.00 0.00 0.00 0.00
0.00 0.00 0.00 0.00 0.00 0.00 0.00 0.00 0.00 0.00 0.00 0.00 0.00 0.00 0.00 0.00 0.00 0.00 0.00 0.00 0.00 0.00 0.00 0.00 0.00 0.00 0.00 0.00 0.00 0.00 0.00 0.00 0.00 0.00 0.00 0.00 0.00 0.00 0.00 0.00 0.00 0.00 0.00 0.00 0.00 0.00 0.00 0.00 0.00
0.00 0.00 0.00 0.00 0.00 0.00 0.00 0.00 0.00 0.00 0.00 0.00 0.00 0.00 0.00 0.00 0.00 0.00 0.00 0.00 0.00 0.00 0.00 0.00 0.00 0.00 0.00 0.00 0.00 0.00 0.00 0.00 0.00 0.00 0.00 0.00 0.00 0.00 0.00 0.00 0.00 0.00 0.00 0.00 0.00 0.00 0.00 0.00 0.00
0.00 0.00 0.00 0.00 0.00 0.00 0.00 0.00 0.00 0.00 0.00 0.00 0.00 0.00 0.00 0.00 0.00 0.00 0.00 0.00 0.00 0.00 0.00 0.00 0.00 0.00 0.00 0.00 0.00 0.00 0.00 0.00 0.00 0.00 0.00 0.00 0.00 0.00 0.00 0.00 0.00 0.00 0.00 0.00 0.00 0.00 0.00 0.00 0.00
0.00 0.00 0.00 0.00 0.00 0.00 0.00 0.00 0.00 0.00 0.00 0.00 0.00 0.00 0.00 0.00 0.00 0.00 0.00 0.00 0.00 0.00 0.00 0.00 0.00 0.00 0.00 0.00 0.00 0.00 0.00 0.00 0.00 0.00 0.00 0.00 0.00 0.00 0.00 0.00 0.00 0.00 0.00 0.00 0.00 0.00 0.00 0.00 0.00
0.00 0.00 0.00 0.00 0.00 0.00 0.00 0.00 0.00 0.00 0.00 0.00 0.00 0.00 0.00 0.00 0.00 0.00 0.00 0.00 0.00 0.00 0.00 0.00 0.00 0.00 0.00 0.00 0.00 0.00 0.00 0.00 0.00 0.00 0.00 0.00 0.00 0.00 0.00 0.00 0.00 0.00 0.00 0.00 0.00 0.00 0.00 0.00 0.00
0.00 0.00 0.00 0.00 0.00 0.00 0.00 0.00 0.00 0.00 0.00 0.00 0.00 0.00 0.00 0.00 0.00 0.00 0.00 0.00 0.00 0.00 0.00 0.00 0.00 0.00 0.00 0.00 0.00 0.00 0.00 0.00 0.00 0.00 0.00 0.00 0.00 0.00 0.00 0.00 0.00 0.00 0.00 0.00 0.00 0.00 0.00 0.00 0.00
0.00 0.00 0.00 0.00 0.00 0.00 0.00 0.00 0.00 0.00 0.00 0.00 0.00 0.00 0.00 0.00 0.00 0.00 0.00 0.00 0.00 0.00 0.00 0.00 0.00 0.00 0.00 0.00 0.00 0.00 0.00 0.00 0.00 0.00 0.00 0.00 0.00 0.00 0.00 0.00 0.00 0.00 0.00 0.00 0.00 0.00 0.00 0.00 0.00
0.00 0.00 0.00 0.00 0.00 0.00 0.00 0.00 0.00 0.00 0.00 0.00 0.00 0.00 0.00 0.00 0.01 0.01 0.00 0.00 0.00 0.00 0.00 0.00 0.00 0.00 0.00 0.00 0.00 0.00 0.00 0.00 0.00 0.00 0.00 0.00 0.00 0.00 0.00 0.00 0.00 0.00 0.00 0.00 0.00 0.00 0.00 0.00 0.00
0.00 0.00 0.00 0.00 0.00 0.00 0.00 0.00 0.00 0.00 0.00 0.00 0.00 0.00 0.00 0.00 0.00 0.02 0.03 0.00 0.00 0.00 0.00 0.00 0.00 0.00 0.00 0.00 0.00 0.00 0.00 0.00 0.00 0.00 0.00 0.00 0.00 0.00 0.00 0.00 0.00 0.00 0.00 0.00 0.00 0.00 0.00 0.00 0.00
0.00 0.00 0.00 0.00 0.00 0.00 0.00 0.00 0.00 0.00 0.00 0.00 0.00 0.00 0.00 0.00 0.00 0.00 0.01 0.03 0.02 0.00 0.00 0.00 0.00 0.00 0.00 0.00 0.00 0.00 0.00 0.00 0.00 0.00 0.00 0.00 0.00 0.00 0.00 0.00 0.00 0.00 0.00 0.00 0.00 0.00 0.00 0.00 0.00
0.00 0.00 0.00 0.00 0.00 0.00 0.00 0.00 0.00 0.00 0.00 0.00 0.00 0.00 0.00 0.00 0.00 0.00 0.00 0.00 0.01 0.01 0.00 0.00 0.00 0.00 0.00 0.00 0.00 0.00 0.00 0.00 0.00 0.00 0.00 0.00 0.00 0.00 0.00 0.00 0.00 0.00 0.00 0.00 0.00 0.00 0.00 0.00 0.00
0.00 0.00 0.00 0.00 0.00 0.00 0.00 0.00 0.00 0.00 0.00 0.00 0.00 0.00 0.00 0.00 0.00 0.00 0.00 0.00 0.00 0.00 0.00 0.00 0.00 0.00 0.00 0.00 0.00 0.00 0.00 0.00 0.00 0.00 0.00 0.00 0.00 0.00 0.00 0.00 0.00 0.00 0.00 0.00 0.00 0.00 0.00 0.00 0.00
0.00 0.00 0.00 0.00 0.00 0.00 0.00 0.00 0.00 0.00 0.00 0.00 0.00 0.00 0.00 0.00 0.00 0.00 0.00 0.00 0.00 0.00 0.00 0.00 0.00 0.00 0.00 0.00 0.00 0.00 0.00 0.00 0.00 0.00 0.00 0.00 0.00 0.00 0.00 0.00 0.00 0.00 0.00 0.00 0.00 0.00 0.00 0.00 0.00
0.00 0.00 0.00 0.00 0.00 0.00 0.00 0.00 0.00 0.00 0.00 0.00 0.00 0.00 0.00 0.00 0.00 0.00 0.00 0.00 0.00 0.00 0.00 0.00 0.01 0.00 0.00 0.00 0.02 0.02 0.00 0.00 0.00 0.00 0.00 0.00 0.00 0.00 0.00 0.00 0.00 0.00 0.00 0.00 0.00 0.00 0.00 0.00 0.00
0.00 0.00 0.00 0.00 0.00 0.00 0.00 0.00 0.00 0.00 0.00 0.00 0.00 0.00 0.00 0.00 0.00 0.00 0.00 0.00 0.00 0.00 0.00 0.01 0.09 0.04 0.00 0.01 0.05 0.07 0.02 0.00 0.00 0.00 0.00 0.00 0.00 0.00 0.00 0.00 0.00 0.00 0.00 0.00 0.00 0.00 0.00 0.00 0.00
0.00 0.00 0.00 0.00 0.00 0.00 0.00 0.00 0.00 0.00 0.00 0.00 0.00 0.00 0.00 0.00 0.00 0.00 0.00 0.00 0.00 0.00 0.00 0.01 0.05 0.07 0.06 0.07 0.11 0.08 0.04 0.01 0.00 0.00 0.00 0.00 0.00 0.00 0.00 0.00 0.00 0.00 0.00 0.00 0.00 0.00 0.00 0.00 0.00
0.00 0.00 0.00 0.00 0.00 0.00 0.00 0.00 0.00 0.00 0.00 0.00 0.00 0.00 0.00 0.00 0.00 0.00 0.00 0.00 0.00 0.00 0.00 0.01 0.04 0.06 0.08 0.13 0.21 0.15 0.09 0.04 0.00 0.00 0.00 0.00 0.00 0.00 0.00 0.00 0.00 0.00 0.00 0.00 0.00 0.00 0.00 0.00 0.00
0.00 0.00 0.00 0.00 0.00 0.00 0.00 0.00 0.00 0.00 0.00 0.00 0.00 0.00 0.00 0.00 0.00 0.00 0.00 0.00 0.00 0.00 0.00 0.00 0.04 0.03 0.07 0.07 0.06 0.16 0.09 0.06 0.01 0.00 0.00 0.00 0.00 0.00 0.00 0.00 0.00 0.00 0.00 0.00 0.00 0.00 0.00 0.00 0.00
0.00 0.00 0.00 0.00 0.00 0.00 0.00 0.00 0.00 0.00 0.00 0.00 0.00 0.00 0.00 0.00 0.00 0.00 0.00 0.00 0.00 0.00 0.00 0.00 0.00 0.03 0.05 0.06 0.01 0.00 0.03 0.05 0.00 0.00 0.00 0.00 0.00 0.00 0.00 0.00 0.00 0.00 0.00 0.00 0.00 0.00 0.00 0.00 0.00
0.00 0.00 0.00 0.00 0.00 0.00 0.00 0.00 0.00 0.00 0.00 0.00 0.00 0.00 0.00 0.00 0.00 0.00 0.00 0.00 0.00 0.00 0.00 0.00 0.00 0.02 0.03 0.03 0.03 0.01 0.00 0.01 0.00 0.00 0.00 0.00 0.00 0.00 0.00 0.00 0.00 0.00 0.00 0.00 0.00 0.00 0.00 0.00 0.00
0.00 0.00 0.00 0.00 0.00 0.00 0.00 0.00 0.00 0.00 0.00 0.00 0.00 0.00 0.00 0.00 0.00 0.00 0.00 0.00 0.00 0.00 0.00 0.00 0.00 0.02 0.02 0.03 0.01 0.00 0.00 0.04 0.03 0.01 0.00 0.00 0.00 0.00 0.00 0.00 0.00 0.00 0.00 0.00 0.00 0.00 0.00 0.00 0.00
0.00 0.00 0.00 0.00 0.00 0.00 0.00 0.00 0.00 0.00 0.00 0.00 0.00 0.00 0.00 0.00 0.00 0.00 0.00 0.00 0.00 0.00 0.00 0.00 0.05 0.06 0.05 0.04 0.02 0.00 0.00 0.03 0.07 0.02 0.06 0.02 0.00 0.00 0.00 0.00 0.00 0.00 0.00 0.00 0.00 0.00 0.00 0.00 0.00
0.00 0.00 0.00 0.00 0.00 0.00 0.00 0.00 0.00 0.00 0.00 0.00 0.00 0.00 0.00 0.00 0.00 0.00 0.00 0.00 0.00 0.00 0.00 0.00 0.04 0.09 0.13 0.07 0.04 0.02 0.00 0.03 0.05 0.04 0.09 0.05 0.00 0.00 0.00 0.00 0.00 0.00 0.00 0.00 0.00 0.00 0.00 0.00 0.00
0.00 0.00 0.00 0.00 0.00 0.00 0.00 0.00 0.00 0.00 0.00 0.00 0.00 0.00 0.00 0.00 0.00 0.00 0.00 0.00 0.00 0.00 0.00 0.00 0.02 0.06 0.11 0.08 0.05 0.07 0.05 0.02 0.05 0.09 0.06 0.07 0.01 0.00 0.00 0.00 0.00 0.00 0.00 0.00 0.00 0.00 0.00 0.00 0.00
0.00 0.00 0.00 0.00 0.00 0.00 0.00 0.00 0.00 0.00 0.00 0.00 0.00 0.00 0.00 0.00 0.00 0.00 0.00 0.00 0.00 0.00 0.00 0.00 0.00 0.01 0.07 0.08 0.15 0.15 0.06 0.04 0.09 0.09 0.13 0.14 0.02 0.00 0.00 0.00 0.00 0.00 0.00 0.00 0.00 0.00 0.00 0.00 0.00
0.00 0.00 0.00 0.00 0.00 0.00 0.00 0.00 0.00 0.00 0.00 0.00 0.00 0.00 0.00 0.00 0.00 0.00 0.00 0.00 0.00 0.00 0.00 0.00 0.00 0.00 0.02 0.09 0.11 0.12 0.07 0.05 0.16 0.16 0.16 0.13 0.03 0.01 0.00 0.00 0.00 0.00 0.00 0.00 0.00 0.00 0.00 0.00 0.00
0.00 0.00 0.00 0.00 0.00 0.00 0.00 0.00 0.00 0.00 0.00 0.00 0.00 0.00 0.00 0.00 0.00 0.00 0.00 0.00 0.00 0.00 0.00 0.00 0.01 0.02 0.05 0.08 0.07 0.11 0.09 0.14 0.11 0.11 0.15 0.13 0.07 0.02 0.00 0.00 0.00 0.00 0.00 0.00 0.00 0.00 0.00 0.00 0.00
0.00 0.00 0.00 0.01 0.00 0.00 0.00 0.00 0.00 0.00 0.00 0.00 0.00 0.00 0.00 0.00 0.00 0.00 0.00 0.00 0.00 0.00 0.00 0.00 0.00 0.07 0.07 0.09 0.18 0.13 0.08 0.11 0.10 0.17 0.28 0.17 0.10 0.03 0.00 0.00 0.00 0.00 0.00 0.00 0.00 0.00 0.00 0.00 0.00
MSLP
1010.45 1009.98 1009.98 1010.03 1010.89 1010.85 1009.58 1007.44 1005.32 1003.89 1003.06 1001.78 1001.41 1002.09 1001.77 1001.76 1003.57 1004.04 1002.94 1003.21 1004.07 1005.64 1006.56 1007.17 1007.47 1007.78 1008.04 1008.39 1008.65 1008.98 1009.29 1009.60 1009.83 1010.17 1010.42 1010.71 1010.88 1011.02 1011.30 1011.63 1011.89 1012.11 1012.30 1012.48 1012.63 1012.75 1012.92 1013.14 1013.30
1010.59 1010.10 1010.20 1010.49 1011.12 1010.97 1008.80 1006.51 1004.92 1004.19 1003.15 1001.85 1002.13 1001.71 1001.76 1001.98 1001.88 1002.32 1002.66 1003.62 1003.96 1005.38 1006.47 1006.84 1007.36 1007.75 1008.02 1008.36 1008.62 1009.03 1009.30 1009.63 1009.97 1010.21 1010.47 1010.78 1011.03 1011.23 1011.61 1011.87 1012.09 1012.28 1012.49 1012.66 1012.80 1012.90 1013.08 1013.19 1013.35
1010.82 1010.61 1011.01 1011.19 1011.11 1010.18 1008.36 1005.65 1004.27 1003.69 1003.28 1002.34 1001.68 1000.89 1000.89 1001.13 1001.51 1001.93 1002.10 1003.27 1004.47 1005.56 1006.22 1006.48 1007.12 1007.53 1007.95 1008.27 1008.61 1009.08 1009.34 1009.54 1009.90 1010.24 1010.58 1010.93 1011.16 1011.34 1011.67 1012.10 1012.23 1012.36 1012.59 1012.82 1012.97 1013.10 1013.23 1013.34 1013.43
1010.93 1011.07 1011.58 1011.32 1010.65 1008.82 1007.16 1005.25 1004.51 1003.95 1002.87 1002.42 1001.72 1001.75 1000.91 1000.18 1000.46 1001.07 1002.43 1003.49 1004.48 1005.69 1005.94 1006.26 1006.90 1007.32 1007.90 1008.33 1008.61 1008.98 1009.40 1009.63 1009.86 1010.14 1010.63 1011.09 1011.39 1011.58 1011.72 1012.02 1012.42 1012.50 1012.66 1012.92 1013.12 1013.29 1013.40 1013.44 1013.48
1011.08 1011.71 1012.06 1011.55 1010.18 1008.44 1006.91 1005.40 1004.81 1004.57 1003.73 1002.47 1002.38 1001.50 1001.17 1000.51 1000.69 1001.58 1002.16 1003.33 1004.25 1005.35 1005.76 1006.36 1007.05 1007.38 1007.85 1008.27 1008.59 1008.90 1009.36 1009.66 1009.95 1010.20 1010.65 1011.08 1011.38 1011.70 1011.88 1012.12 1012.36 1012.65 1012.89 1013.07 1013.25 1013.41 1013.47 1013.46 1013.52
1011.63 1012.12 1012.49 1011.55 1009.74 1008.19 1007.21 1005.94 1005.25 1004.59 1003.82 1002.94 1002.26 1001.85 1001.53 1000.89 1001.02 1002.11 1002.37 1003.12 1003.94 1004.99 1005.72 1006.32 1007.25 1007.67 1007.95 1008.30 1008.51 1008.88 1009.30 1009.63 1009.89 1010.19 1010.66 1011.11 1011.31 1011.60 1011.96 1012.22 1012.48 1012.74 1012.93 1013.18 1013.29 1013.40 1013.58 1013.58 1013.46
1011.98 1012.58 1012.21 1011.08 1009.92 1008.65 1007.42 1006.10 1005.76 1004.71 1004.05 1003.11 1002.46 1001.94 1001.49 1001.79 1000.91 1001.23 1002.24 1003.05 1004.05 1005.03 1005.99 1006.52 1007.04 1007.81 1008.17 1008.46 1008.67 1008.94 1009.28 1009.67 1010.11 1010.35 1010.69 1011.07 1011.38 1011.67 1011.92 1012.20 1012.46 1012.85 1013.06 1013.14 1013.31 1013.37 1013.56 1013.57 1013.52
1011.54 1012.30 1012.04 1011.12 1010.20 1008.86 1007.27 1006.59 1005.97 1005.25 1004.03 1003.63 1002.88 1002.50 1002.24 1002.14 1002.22 1002.48 1002.77 1003.27 1003.95 1004.90 1005.98 1006.50 1006.90 1007.75 1008.35 1008.55 1008.84 1009.04 1009.41 1009.79 1010.16 1010.53 1010.93 1011.12 1011.41 1011.81 1012.12 1012.32 1012.48 1012.79 1013.06 1013.17 1013.27 1013.42 1013.51 1013.62 1013.58
1011.03 1012.02 1012.02 1011.03 1010.17 1009.02 1007.67 1007.07 1005.62 1005.27 1004.64 1004.12 1003.83 1003.59 1003.14 1002.13 1002.63 1003.29 1003.94 1004.78 1005.00 1005.51 1005.70 1006.63 1007.00 1007.38 1008.00 1008.56 1008.97 1009.22 1009.41 1009.75 1010.13 1010.64 1011.06 1011.29 1011.57 1011.90 1012.18 1012.48 1012.57 1012.71 1013.00 1013.07 1013.24 1013.33 1013.40 1013.58 1013.59
1011.16 1011.62 1011.19 1010.54 1009.75 1009.02 1008.16 1007.40 1006.29 1005.55 1004.99 1004.40 1003.98 1003.40 1002.92 1003.05 1004.67 1003.21 1003.64 1004.35 1004.91 1005.27 1005.65 1005.91 1006.36 1006.42 1007.41 1008.13 1008.69 1009.34 1009.58 1009.91 1010.21 1010.60 1010.97 1011.34 1011.68 1011.95 1012.20 1012.38 1012.55 1012.77 1012.98 1013.02 1013.11 1013.26 1013.34 1013.38 1013.48
1010.82 1010.82 1010.39 1009.68 1009.00 1008.51 1008.06 1007.16 1006.36 1005.38 1004.74 1005.02 1004.65 1004.08 1004.15 1003.69 1003.36 1005.03 1004.78 1003.23 1003.24 1003.66 1004.67 1005.42 1006.07 1006.66 1006.31 1007.45 1008.25 1009.11 1009.46 1009.89 1010.22 1010.61 1010.89 1011.29 1011.72 1012.01 1012.32 1012.51 1012.52 1012.77 1012.95 1013.11 1013.12 1013.28 1013.35 1013.28 1013.39
1010.92 1010.40 1010.12 1009.59 1008.95 1008.62 1008.10 1007.22 1006.25 1005.69 1004.95 1004.80 1004.47 1004.16 1003.85 1004.63 1004.17 1003.91 1005.01 1005.43 1004.64 1004.06 1003.76 1004.37 1005.30 1005.71 1006.22 1006.89 1007.65 1008.62 1009.32 1009.66 1010.03 1010.36 1010.85 1011.20 1011.68 1012.04 1012.20 1012.39 1012.52 1012.70 1012.84 1013.16 1013.23 1013.29 1013.31 1013.25 1013.18
1010.78 1010.53 1010.13 1009.57 1009.24 1008.68 1007.79 1007.21 1006.62 1005.24 1004.76 1004.49 1004.40 1004.18 1003.80 1003.69 1004.38 1003.56 1003.43 1004.39 1004.13 1004.44 1003.60 1003.88 1004.29 1005.01 1005.29 1006.28 1007.26 1008.09 1008.86 1009.36 1009.66 1010.05 1010.58 1010.98 1011.46 1011.98 1011.97 1012.16 1012.35 1012.51 1012.71 1012.90 1013.04 1013.09 1013.23 1013.14 1012.93
1010.82 1010.54 1009.99 1009.34 1008.91 1008.40 1007.86 1007.04 1006.60 1005.54 1004.44 1003.74 1003.91 1004.08 1003.85 1003.47 1003.45 1003.53 1002.99 1003.52 1003.83 1004.04 1004.43 1003.59 1003.79 1004.08 1004.66 1005.42 1006.02 1007.23 1008.31 1008.86 1009.47 1009.87 1010.28 1010.70 1010.88 1011.48 1011.72 1012.03 1012.23 1012.41 1012.49 1012.58 1012.62 1012.88 1013.05 1012.96 1012.88
1011.06 1010.72 1009.98 1009.26 1008.84 1008.25 1007.35 1006.69 1006.23 1005.47 1004.99 1004.43 1003.44 1003.11 1003.43 1003.24 1002.79 1002.96 1002.79 1002.46 1003.34 1003.12 1003.19 1004.25 1003.83 1003.91 1004.53 1004.96 1005.59 1006.26 1007.42 1008.38 1009.11 1009.40 1009.82 1010.11 1010.50 1010.82 1011.20 1011.56 1011.78 1011.93 1012.21 1012.35 1012.48 1012.73 1012.67 1012.84 1012.72
1011.68 1011.40 1010.80 1009.31 1008.80 1008.06 1007.85 1006.76 1006.07 1005.16 1004.84 1004.42 1003.86 1002.88 1002.71 1002.75 1002.39 1001.99 1002.11 1002.14 1002.17 1002.46 1002.65 1003.08 1003.87 1003.71 1004.14 1004.74 1005.49 1006.25 1006.61 1007.52 1008.67 1009.11 1009.63 1010.05 1010.32 1010.33 1010.69 1011.15 1011.45 1011.40 1011.78 1012.13 1012.41 1012.48 1012.69 1012.95 1012.74
1012.19 1011.92 1010.96 1009.57 1008.73 1008.25 1007.76 1006.75 1006.26 1005.55 1005.08 1004.56 1003.87 1003.23 1002.10 1002.04 1002.02 1001.49 1001.33 1001.39 1001.40 1001.60 1002.04 1002.96 1003.91 1004.31 1004.60 1005.45 1006.27 1006.13 1006.89 1007.26 1007.56 1008.36 1009.01 1009.66 1010.02 1010.30 1010.35 1010.69 1011.02 1011.07 1011.44 1011.80 1012.08 1012.22 1012.45 1012.98 1013.16
1011.93 1011.60 1010.63 1009.59 1008.57 1008.11 1007.39 1006.55 1005.96 1005.75 1005.39 1004.79 1004.13 1003.29 1002.45 1001.75 1001.75 1001.08 1001.03 1001.08 1001.14 1001.30 1001.39 1002.27 1003.32 1004.50 1005.06 1005.32 1006.36 1007.15 1006.87 1006.95 1007.22 1007.60 1008.55 1008.92 1009.31 1009.76 1010.14 1010.34 1010.67 1010.85 1011.32 1011.79 1011.95 1011.92 1012.57 1013.05 1013.27
1011.19 1010.87 1010.15 1008.91 1008.35 1008.01 1007.45 1006.70 1006.37 1005.77 1005.55 1004.90 1004.27 1003.75 1003.04 1002.06 1001.02 1000.70 1000.33 1000.48 1000.76 1001.41 1001.63 1002.13 1002.81 1003.99 1005.12 1005.30 1006.02 1007.17 1007.40 1007.24 1007.10 1007.38 1007.81 1008.48 1008.93 1009.10 1009.62 1009.92 1010.58 1010.84 1011.17 1011.40 1011.58 1012.23 1012.84 1013.40 1013.58
1010.55 1010.15 1009.37 1008.38 1007.98 1007.89 1007.65 1007.08 1006.16 1005.34 1004.99 1004.50 1004.03 1003.57 1002.84 1002.40 1001.44 1000.21 999.82 1000.06 1000.42 1001.12 1001.44 1002.08 1002.37 1003.19 1004.17 1005.08 1004.78 1006.25 1006.60 1006.45 1006.66 1007.16 1007.49 1007.81 1008.44 1008.87 1009.22 1009.52 1010.20 1010.65 1011.19 1011.43 1011.70 1012.19 1013.11 1013.74 1013.78
1009.67 1009.54 1008.91 1008.63 1008.15 1008.03 1008.11 1007.10 1005.33 1004.48 1004.61 1003.89 1003.32 1002.89 1002.33 1001.87 1001.07 1000.27 999.89 999.43 999.86 1000.44 1000.93 1001.89 1002.21 1002.55 1003.37 1003.94 1004.50 1003.87 1004.71 1005.88 1006.55 1006.48 1007.09 1007.53 1007.80 1008.48 1008.58 1009.30 1010.01 1010.49 1010.87 1011.42 1011.79 1012.22 1013.03 1013.91 1014.07
1008.82 1008.81 1008.46 1008.43 1008.56 1008.70 1008.36 1007.07 1004.58 1004.32 1003.67 1003.16 1002.36 1002.17 1001.66 1001.02 1000.23 1000.02 999.83 999.57 998.94 999.13 1000.03 1000.50 1001.71 1002.06 1002.53 1003.15 1004.52 1004.35 1003.72 1004.08 1005.44 1005.28 1006.35 1007.21 1007.77 1007.99 1008.32 1009.21 1009.97 1010.42 1010.87 1011.48 1012.00 1012.57 1013.06 1013.47 1014.37
1008.42 1008.29 1008.10 1008.08 1008.53 1008.87 1008.85 1008.51 1003.74 1004.42 1003.74 1002.75 1001.75 1001.41 1000.78 1000.63 1000.41 1000.20 999.73 999.04 998.45 998.15 999.21 999.40 1000.34 1001.34 1001.55 1001.94 1002.24 1003.49 1003.91 1003.50 1003.99 1005.11 1006.07 1007.02 1007.36 1007.72 1008.23 1008.92 1010.03 1010.57 1011.07 1011.74 1012.22 1012.95 1013.49 1013.61 1014.35
1008.67 1008.51 1008.25 1008.30 1008.99 1009.03 1008.60 1008.46 1003.52 1004.12 1002.92 1002.12 1001.37 1000.99 1000.95 1000.84 1000.57 1000.30 999.81 999.55 999.08 998.39 998.19 998.72 999.51 1000.62 1001.00 1000.91 1001.50 1001.78 1003.08 1003.14 1003.97 1004.89 1006.00 1006.60 1006.70 1007.64 1008.28 1008.86 1009.97 1010.65 1011.25 1012.03 1012.64 1013.32 1013.69 1014.14 1014.61
1009.24 1009.82 1010.16 1009.90 1009.85 1008.64 1007.98 1007.33 1004.43 1002.99 1002.02 1001.44 1001.11 1001.45 1001.38 1001.18 1001.33 1000.86 1000.27 999.80 999.24 998.86 998.28 998.60 998.55 999.00 999.94 1000.62 1000.76 1000.70 1001.79 1002.78 1002.86 1003.83 1005.09 1006.10 1006.67 1007.64 1008.22 1008.86 1010.00 1010.73 1011.39 1012.32 1012.99 1013.71 1014.13 1014.52 1015.08
1010.25 1010.54 1011.13 1010.75 1010.08 1008.82 1008.01 1005.45 1003.16 1002.27 1001.40 1000.86 1001.20 1001.24 1001.02 1000.88 1001.05 1000.88 1000.52 1000.11 999.11 998.43 997.84 997.80 997.63 997.77 998.80 999.67 999.93 1000.84 1000.72 1002.14 1002.75 1003.13 1004.18 1005.42 1006.11 1007.19 1008.17 1009.09 1009.97 1010.76 1011.65 1012.61 1013.26 1014.03 1014.61 1015.06 1015.61
1010.03 1010.15 1009.83 1010.25 1009.73 1008.58 1006.55 1004.26 1002.52 1001.44 1000.86 1001.14 1001.31 1001.03 1001.21 1001.08 1000.69 1000.44 1000.23 999.53 998.91 997.87 997.19 996.77 996.59 996.73 997.30 998.38 998.88 999.92 1000.64 1001.28 1002.17 1002.78 1003.49 1004.70 1005.75 1007.14 1008.31 1009.01 1009.81 1010.96 1012.14 1012.81 1013.46 1014.30 1014.93 1015.55 1016.06
1010.12 1010.10 1009.91 1010.34 1009.96 1008.11 1005.52 1004.12 1002.66 1001.53 1001.25 1001.37 1001.35 1001.57 1001.67 1001.64 1001.40 1000.83 1000.05 999.04 997.99 997.19 996.45 995.54 995.80 995.58 996.13 997.26 998.14 999.33 1000.47 1000.72 1001.34 1002.42 1003.41 1004.29 1005.39 1006.97 1007.99 1008.84 1009.90 1011.34 1012.58 1013.15 1013.76 1014.66 1015.38 1015.88 1016.60
1009.77 1010.29 1010.48 1010.46 1010.23 1008.43 1006.03 1003.41 1001.50 1001.26 1001.38 1001.67 1001.89 1001.95 1001.76 1001.41 1000.94 1000.44 999.60 998.48 997.67 996.86 995.74 995.37 995.22 994.88 995.26 996.08 997.34 998.37 999.67 1000.42 1000.99 1002.24 1003.14 1004.02 1005.13 1006.68 1007.86 1008.78 1010.40 1011.73 1012.84 1013.38 1014.06 1015.02 1015.69 1016.47 1017.13
1009.73 1010.23 1011.05 1011.09 1010.03 1008.59 1006.92 1003.45 1002.09 1001.65 1001.80 1002.38 1002.64 1002.21 1001.89 1001.43 1000.83 1000.16 999.38 998.36 997.28 996.88 996.12 994.84 994.66 994.83 995.05 995.27 996.54 997.75 998.87 999.86 1000.91 1002.01 1003.18 1002.09 1004.58 1006.48 1007.60 1008.79 1010.56 1011.94 1013.01 1013.59 1014.29 1015.15 1016.20 1016.83 1017.57
Thickness
5801 5808 5810 5805 5777 5769 5770 5797 5832 5832 5836 5858 5861 5848 5851 5862 5839 5818 5883 5888 5885 5873 5862 5858 5856 5854 5852 5849 5848 5846 5844 5841 5839 5835 5833 5830 5829 5827 5823 5820 5817 5814 5811 5809 5806 5803 5800 5797 5794
5797 5804 5799 5786 5757 5749 5771 5812 5822 5831 5843 5857 5852 5856 5855 5845 5877 5876 5879 5884 5887 5875 5863 5861 5857 5854 5852 5850 5849 5846 5844 5841 5838 5835 5832 5829 5827 5825 5821 5818 5815 5812 5809 5807 5804 5801 5797 5795 5791
5792 5796 5777 5764 5749 5755 5775 5818 5833 5839 5843 5848 5847 5867 5863 5858 5876 5882 5892 5887 5879 5871 5864 5863 5859 5856 5852 5850 5848 5845 5844 5842 5839 5835 5831 5828 5826 5824 5821 5816 5814 5811 5808 5805 5801 5798 5795 5792 5789
5784 5779 5771 5751 5754 5781 5801 5824 5830 5830 5844 5850 5852 5831 5862 5888 5887 5895 5891 5885 5877 5868 5866 5865 5860 5857 5852 5849 5848 5845 5842 5841 5839 5835 5831 5827 5824 5822 5820 5816 5812 5810 5807 5803 5799 5796 5792 5789 5787
5775 5762 5743 5744 5757 5784 5806 5822 5823 5818 5825 5838 5839 5833 5836 5874 5890 5892 5888 5882 5873 5867 5866 5862 5857 5854 5851 5848 5847 5845 5842 5840 5837 5835 5830 5826 5823 5820 5818 5815 5811 5808 5804 5801 5797 5794 5791 5788 5785
5751 5750 5727 5734 5762 5786 5794 5810 5809 5813 5821 5827 5829 5827 5833 5866 5872 5876 5883 5879 5874 5867 5864 5859 5852 5849 5848 5846 5846 5844 5841 5839 5837 5834 5830 5825 5822 5819 5815 5812 5809 5805 5803 5799 5796 5792 5789 5786 5784
5740 5727 5723 5742 5753 5765 5786 5804 5799 5805 5811 5817 5833 5820 5836 5846 5869 5875 5875 5875 5869 5863 5856 5854 5851 5846 5844 5843 5843 5842 5840 5838 5834 5831 5828 5823 5820 5817 5814 5810 5807 5803 5800 5798 5794 5792 5787 5784 5781
5740 5726 5730 5736 5742 5746 5783 5787 5795 5797 5804 5828 5830 5807 5813 5838 5850 5855 5859 5862 5862 5857 5852 5850 5848 5843 5839 5839 5838 5838 5836 5834 5831 5827 5824 5821 5818 5814 5811 5808 5805 5801 5798 5795 5793 5789 5785 5782 5779
5745 5709 5704 5724 5735 5743 5767 5762 5790 5799 5799 5809 5814 5809 5819 5834 5838 5834 5835 5836 5843 5844 5847 5843 5842 5842 5838 5835 5833 5833 5832 5830 5828 5823 5819 5817 5814 5810 5807 5804 5802 5800 5796 5793 5790 5786 5783 5779 5776
5718 5696 5714 5730 5736 5733 5745 5751 5768 5775 5783 5793 5801 5812 5818 5820 5799 5815 5820 5824 5831 5836 5838 5841 5841 5845 5839 5834 5831 5828 5827 5826 5824 5820 5817 5814 5810 5807 5804 5801 5799 5797 5794 5791 5788 5783 5781 5778 5775
5716 5702 5720 5728 5734 5735 5737 5746 5760 5767 5771 5776 5778 5790 5794 5801 5804 5789 5799 5818 5833 5842 5839 5836 5835 5835 5842 5836 5830 5825 5823 5821 5819 5816 5815 5811 5806 5803 5800 5798 5797 5794 5791 5788 5785 5782 5779 5776 5772
5699 5710 5712 5717 5723 5719 5721 5734 5744 5754 5765 5772 5779 5786 5790 5778 5787 5794 5784 5791 5806 5825 5835 5838 5831 5835 5835 5833 5830 5823 5818 5817 5815 5813 5810 5807 5803 5800 5798 5795 5794 5792 5789 5784 5782 5780 5777 5773 5771
5691 5697 5699 5704 5703 5704 5714 5718 5723 5747 5762 5769 5771 5775 5779 5783 5776 5787 5795 5785 5800 5807 5829 5831 5834 5831 5833 5828 5825 5820 5815 5814 5812 5810 5807 5804 5800 5796 5796 5793 5792 5790 5787 5784 5780 5778 5774 5772 5770
5680 5680 5685 5690 5689 5689 5690 5703 5705 5728 5747 5754 5759 5761 5768 5773 5780 5779 5787 5783 5786 5798 5807 5828 5829 5831 5830 5828 5828 5819 5812 5808 5806 5805 5803 5801 5799 5795 5794 5791 5789 5786 5784 5782 5780 5777 5772 5770 5767
5662 5656 5668 5678 5674 5672 5685 5681 5688 5708 5716 5723 5737 5750 5751 5761 5771 5777 5780 5788 5781 5790 5807 5805 5820 5825 5821 5822 5821 5818 5810 5804 5802 5802 5801 5800 5798 5795 5793 5790 5789 5786 5782 5779 5777 5773 5770 5767 5766
5634 5633 5625 5655 5658 5665 5658 5653 5681 5695 5694 5698 5712 5729 5741 5745 5758 5766 5775 5778 5785 5784 5796 5802 5805 5819 5817 5814 5811 5807 5807 5804 5797 5796 5796 5793 5794 5794 5792 5789 5788 5787 5782 5778 5775 5771 5767 5763 5763
5606 5596 5606 5627 5644 5642 5641 5639 5663 5676 5677 5676 5687 5703 5724 5733 5740 5756 5767 5771 5778 5782 5780 5787 5782 5794 5803 5799 5792 5796 5795 5797 5797 5794 5793 5791 5790 5789 5789 5787 5786 5784 5781 5777 5774 5771 5766 5759 5754
5589 5586 5598 5609 5637 5631 5630 5634 5651 5655 5656 5659 5667 5682 5698 5716 5721 5741 5751 5757 5761 5770 5772 5776 5774 5770 5780 5786 5781 5775 5784 5790 5793 5793 5790 5791 5790 5788 5786 5787 5784 5782 5778 5771 5769 5766 5759 5753 5748
5598 5594 5596 5615 5624 5615 5620 5625 5630 5638 5635 5639 5648 5654 5668 5687 5715 5727 5744 5749 5751 5750 5754 5754 5761 5759 5760 5771 5768 5764 5766 5774 5783 5787 5788 5785 5786 5787 5786 5785 5780 5778 5774 5769 5765 5757 5750 5743 5738
5591 5586 5593 5609 5614 5610 5602 5597 5612 5626 5625 5630 5634 5643 5654 5661 5684 5712 5730 5738 5743 5740 5741 5742 5747 5747 5751 5755 5766 5761 5764 5769 5776 5777 5779 5782 5781 5781 5781 5782 5777 5774 5766 5763 5758 5751 5742 5735 5732
5590 5581 5589 5587 5599 5597 5584 5583 5605 5614 5604 5614 5624 5634 5644 5649 5662 5689 5708 5729 5735 5736 5735 5732 5734 5739 5741 5749 5755 5769 5767 5749 5762 5773 5774 5777 5781 5776 5781 5778 5773 5770 5765 5756 5751 5747 5739 5727 5725
5581 5595 5594 5592 5581 5568 5578 5563 5608 5601 5605 5609 5618 5625 5636 5650 5664 5676 5687 5699 5720 5736 5732 5733 5727 5725 5737 5737 5735 5749 5767 5768 5765 5779 5775 5774 5773 5774 5776 5771 5767 5763 5758 5750 5746 5740 5734 5728 5718
5585 5594 5593 5595 5574 5563 5566 5546 5604 5598 5595 5603 5615 5620 5636 5644 5647 5657 5669 5683 5703 5723 5723 5729 5726 5717 5726 5734 5741 5744 5752 5767 5773 5772 5766 5765 5767 5769 5771 5767 5759 5754 5749 5744 5740 5732 5725 5723 5714
5589 5581 5581 5581 5563 5549 5568 5550 5598 5588 5597 5606 5618 5621 5623 5629 5633 5641 5654 5664 5674 5691 5708 5709 5712 5709 5713 5731 5737 5749 5751 5759 5760 5762 5756 5757 5763 5761 5763 5760 5752 5746 5741 5736 5730 5722 5718 5713 5706
5571 5555 5526 5539 5541 5560 5573 5556 5585 5606 5614 5613 5617 5614 5615 5618 5621 5630 5638 5652 5665 5671 5684 5689 5699 5706 5711 5717 5732 5749 5752 5751 5761 5762 5756 5752 5754 5754 5755 5752 5743 5738 5735 5727 5720 5712 5708 5704 5698
5555 5548 5533 5529 5536 5553 5567 5562 5589 5603 5610 5613 5611 5612 5615 5617 5616 5620 5626 5633 5649 5664 5677 5684 5692 5702 5707 5712 5727 5741 5749 5746 5751 5758 5755 5751 5751 5750 5745 5740 5735 5732 5727 5718 5712 5704 5698 5694 5689
5551 5544 5553 5535 5550 5538 5560 5577 5594 5607 5608 5602 5600 5602 5601 5605 5612 5616 5619 5629 5637 5652 5665 5675 5688 5697 5704 5708 5728 5734 5736 5739 5744 5751 5753 5749 5745 5739 5733 5732 5729 5722 5712 5709 5704 5695 5689 5684 5679
5542 5550 5534 5511 5507 5539 5560 5559 5565 5588 5593 5590 5591 5588 5588 5588 5591 5598 5610 5621 5634 5645 5657 5667 5679 5692 5703 5711 5718 5720 5723 5733 5740 5743 5744 5744 5737 5727 5724 5723 5718 5707 5700 5699 5694 5686 5680 5675 5667
5544 5528 5532 5532 5523 5528 5541 5552 5578 5583 5584 5579 5576 5575 5579 5580 5585 5588 5599 5614 5625 5632 5648 5649 5665 5683 5697 5708 5709 5714 5718 5725 5733 5732 5735 5734 5722 5717 5711 5711 5702 5695 5693 5691 5685 5676 5671 5663 5656
5544 5531 5515 5514 5521 5525 5522 5533 5576 5577 5567 5564 5559 5562 5566 5569 5572 5574 5583 5596 5609 5614 5627 5646 5657 5670 5684 5700 5704 5707 5716 5721 5722 5724 5725 5722 5712 5703 5703 5700 5693 5688 5684 5683 5677 5671 5661 5655 5647